| time (UTC) | temp F | wind direction | speed MPH | gust MPH | rain 1hr in | rain 24hr in | rain mn in | humidity % | barometer mb |
| 20260510033129 | 53 | 299 | 0.0 | 1.0 | 0.00 | 0.00 | 0.00 | 94 | 1007.6 |
| 20260510032254 | 54 | 300 | 0.0 | 1.0 | 0.00 | 0.00 | 0.00 | 94 | 1007.7 |
| 20260510031212 | 54 | 300 | 1.0 | 2.0 | 0.00 | 0.00 | 0.00 | 94 | 1007.7 |
| 20260510030234 | 54 | 326 | 0.0 | 2.0 | 0.00 | 0.00 | 0.00 | 93 | 1007.8 |
| 20260510025152 | 55 | 32 | 0.0 | 3.0 | 0.00 | 0.00 | 0.00 | 92 | 1008.7 |
| 20260510024214 | 55 | 26 | 1.0 | 2.0 | 0.00 | 0.00 | 0.00 | 91 | 1008.6 |
| 20260510023131 | 55 | 45 | 1.0 | 3.0 | 0.00 | 0.00 | 0.00 | 90 | 1008.7 |
| 20260510022256 | 56 | 44 | 1.0 | 4.0 | 0.00 | 0.00 | 0.00 | 86 | 1008.6 |
| 20260510021209 | 60 | 16 | 3.0 | 10.0 | 0.00 | 0.00 | 0.00 | 72 | 1008.4 |
| 20260510020231 | 61 | 10 | 1.0 | 2.0 | 0.00 | 0.00 | 0.00 | 65 | 1007.1 |
| 20260510015148 | 61 | 318 | 1.0 | 2.0 | 0.00 | 0.00 | 0.00 | 64 | 1006.3 |
| 20260510014250 | 61 | 296 | 1.0 | 2.0 | 0.00 | 0.00 | 0.00 | 64 | 1006.0 |
| 20260510013128 | 61 | 306 | 0.0 | 2.0 | 0.00 | 0.00 | 0.00 | 64 | 1005.9 |
| 20260510012253 | 61 | 283 | 1.0 | 3.0 | 0.00 | 0.00 | 0.00 | 64 | 1005.5 |
| 20260510011211 | 61 | 295 | 1.0 | 2.0 | 0.00 | 0.00 | 0.00 | 63 | 1005.7 |
| 20260510010233 | 61 | 323 | 0.0 | 1.0 | 0.00 | 0.00 | 0.00 | 63 | 1005.6 |
| 20260510005151 | 61 | 317 | 1.0 | 1.0 | 0.00 | 0.00 | 0.00 | 62 | 1005.5 |
| 20260510004313 | 62 | 304 | 1.0 | 2.0 | 0.00 | 0.00 | 0.00 | 60 | 1005.6 |
| 20260510003151 | 62 | 273 | 1.0 | 3.0 | 0.00 | 0.00 | 0.00 | 59 | 1005.5 |
| 20260510002256 | 63 | 294 | 1.0 | 4.0 | 0.00 | 0.00 | 0.00 | 57 | 1005.3 |
| 20260510001214 | 64 | 278 | 2.0 | 3.0 | 0.00 | 0.00 | 0.00 | 56 | 1005.3 |
| 20260510000236 | 64 | 268 | 2.0 | 4.0 | 0.00 | 0.00 | 0.00 | 54 | 1005.2 |
| 20260509235154 | 64 | 271 | 2.0 | 4.0 | 0.00 | 0.00 | 0.00 | 54 | 1004.9 |
| 20260509234236 | 65 | 268 | 1.0 | 3.0 | 0.00 | 0.00 | 0.00 | 54 | 1004.9 |
| 20260509233134 | 65 | 259 | 2.0 | 6.0 | 0.00 | 0.00 | 0.00 | 54 | 1005.0 |
| 20260509232258 | 65 | 276 | 3.0 | 8.0 | 0.00 | 0.00 | 0.00 | 54 | 1005.0 |
| 20260509231216 | 66 | 251 | 2.0 | 6.0 | 0.00 | 0.00 | 0.00 | 54 | 1005.0 |
| 20260509230238 | 67 | 272 | 2.0 | 9.0 | 0.00 | 0.00 | 0.00 | 53 | 1004.8 |
| 20260509225155 | 67 | 259 | 3.0 | 8.0 | 0.00 | 0.00 | 0.00 | 52 | 1004.7 |
| 20260509224217 | 67 | 260 | 3.0 | 9.0 | 0.00 | 0.00 | 0.00 | 52 | 1004.6 |
| 20260509223135 | 68 | 275 | 3.0 | 7.0 | 0.00 | 0.00 | 0.00 | 50 | 1004.7 |
| 20260509222301 | 68 | 263 | 2.0 | 8.0 | 0.00 | 0.00 | 0.00 | 51 | 1004.6 |
| 20260509221217 | 68 | 261 | 3.0 | 6.0 | 0.00 | 0.00 | 0.00 | 52 | 1004.7 |
| 20260509220239 | 68 | 260 | 3.0 | 6.0 | 0.00 | 0.00 | 0.00 | 50 | 1004.9 |
| 20260509215157 | 69 | 273 | 3.0 | 6.0 | 0.00 | 0.00 | 0.00 | 49 | 1005.1 |
| 20260509214219 | 68 | 271 | 4.0 | 9.0 | 0.00 | 0.00 | 0.00 | 50 | 1005.0 |
| 20260509213137 | 67 | 269 | 2.0 | 9.0 | 0.00 | 0.00 | 0.00 | 53 | 1005.0 |
| 20260509212305 | 66 | 265 | 2.0 | 9.0 | 0.00 | 0.00 | 0.00 | 55 | 1005.2 |
| 20260509211220 | 66 | 258 | 2.0 | 6.0 | 0.00 | 0.00 | 0.00 | 56 | 1005.2 |
| 20260509210241 | 66 | 254 | 2.0 | 4.0 | 0.00 | 0.00 | 0.00 | 56 | 1005.4 |
| 20260509205159 | 68 | 257 | 2.0 | 4.0 | 0.00 | 0.00 | 0.00 | 55 | 1005.4 |
| 20260509204221 | 68 | 252 | 3.0 | 7.0 | 0.00 | 0.00 | 0.00 | 54 | 1005.5 |
| 20260509203139 | 65 | 223 | 4.0 | 7.0 | 0.00 | 0.00 | 0.00 | 55 | 1005.7 |
| 20260509202200 | 66 | 249 | 3.0 | 11.0 | 0.00 | 0.00 | 0.00 | 57 | 1005.6 |
| 20260509201222 | 66 | 248 | 2.0 | 4.0 | 0.00 | 0.00 | 0.00 | 57 | 1005.8 |
| 20260509200243 | 66 | 244 | 3.0 | 11.0 | 0.00 | 0.00 | 0.00 | 59 | 1005.9 |
| 20260509195241 | 64 | 272 | 3.0 | 7.0 | 0.00 | 0.00 | 0.00 | 61 | 1006.2 |
| 20260509194220 | 64 | 264 | 3.0 | 10.0 | 0.00 | 0.00 | 0.00 | 62 | 1006.2 |
| 20260509193138 | 65 | 258 | 3.0 | 10.0 | 0.00 | 0.00 | 0.00 | 61 | 1006.4 |
| 20260509192220 | 65 | 272 | 2.0 | 6.0 | 0.00 | 0.00 | 0.00 | 61 | 1006.3 |
| 20260509191221 | 65 | 239 | 3.0 | 7.0 | 0.00 | 0.00 | 0.00 | 62 | 1006.4 |
| 20260509190242 | 65 | 262 | 3.0 | 10.0 | 0.00 | 0.00 | 0.00 | 62 | 1006.6 |
| 20260509185201 | 64 | 265 | 4.0 | 11.0 | 0.00 | 0.00 | 0.00 | 65 | 1006.7 |
| 20260509184222 | 64 | 251 | 3.0 | 9.0 | 0.00 | 0.00 | 0.00 | 64 | 1006.7 |
| 20260509183141 | 62 | 229 | 3.0 | 7.0 | 0.00 | 0.00 | 0.00 | 67 | 1006.8 |
| 20260509182202 | 62 | 239 | 3.0 | 7.0 | 0.00 | 0.00 | 0.00 | 66 | 1006.8 |
| 20260509181223 | 61 | 257 | 2.0 | 4.0 | 0.00 | 0.00 | 0.00 | 70 | 1006.9 |
| 20260509180245 | 61 | 254 | 2.0 | 7.0 | 0.00 | 0.00 | 0.00 | 71 | 1007.0 |
| 20260509175223 | 60 | 272 | 3.0 | 4.0 | 0.00 | 0.00 | 0.00 | 72 | 1006.9 |
| 20260509174224 | 59 | 300 | 1.0 | 3.0 | 0.00 | 0.00 | 0.00 | 74 | 1007.0 |
| 20260509173202 | 59 | 297 | 2.0 | 7.0 | 0.00 | 0.00 | 0.00 | 74 | 1007.0 |
| 20260509172204 | 59 | 272 | 3.0 | 7.0 | 0.00 | 0.00 | 0.00 | 75 | 1007.0 |
| 20260509171225 | 60 | 276 | 2.0 | 4.0 | 0.00 | 0.00 | 0.00 | 72 | 1006.9 |
| 20260509170246 | 60 | 278 | 3.0 | 4.0 | 0.00 | 0.00 | 0.00 | 72 | 1006.8 |
| 20260509165204 | 60 | 289 | 2.0 | 7.0 | 0.00 | 0.00 | 0.00 | 73 | 1006.8 |
| 20260509164226 | 60 | 296 | 2.0 | 2.0 | 0.00 | 0.00 | 0.00 | 74 | 1006.8 |
| 20260509163143 | 61 | 282 | 2.0 | 6.0 | 0.00 | 0.00 | 0.00 | 74 | 1006.8 |
| 20260509162205 | 59 | 246 | 2.0 | 6.0 | 0.00 | 0.00 | 0.00 | 75 | 1006.6 |
| 20260509161246 | 59 | 296 | 2.0 | 7.0 | 0.00 | 0.00 | 0.00 | 77 | 1006.6 |
| 20260509160308 | 58 | 253 | 3.0 | 6.0 | 0.00 | 0.00 | 0.00 | 80 | 1006.6 |
| 20260509155226 | 58 | 289 | 2.0 | 6.0 | 0.00 | 0.00 | 0.00 | 82 | 1006.5 |
| 20260509154228 | 57 | 266 | 2.0 | 6.0 | 0.00 | 0.00 | 0.00 | 83 | 1006.6 |
| 20260509153146 | 56 | 284 | 1.0 | 4.0 | 0.00 | 0.00 | 0.00 | 86 | 1006.5 |
| 20260509152207 | 55 | 276 | 2.0 | 6.0 | 0.00 | 0.00 | 0.00 | 86 | 1006.5 |
| 20260509151228 | 55 | 290 | 1.0 | 4.0 | 0.00 | 0.00 | 0.00 | 89 | 1006.3 |
| 20260509150146 | 53 | 300 | 1.0 | 2.0 | 0.00 | 0.00 | 0.00 | 90 | 1006.7 |
| 20260509145208 | 54 | 282 | 1.0 | 3.0 | 0.00 | 0.00 | 0.00 | 90 | 1006.7 |
| 20260509144230 | 54 | 308 | 2.0 | 6.0 | 0.00 | 0.00 | 0.00 | 90 | 1006.7 |
| 20260509143208 | 54 | 278 | 2.0 | 4.0 | 0.00 | 0.00 | 0.00 | 91 | 1006.6 |
| 20260509142106 | 53 | 283 | 1.0 | 2.0 | 0.00 | 0.00 | 0.00 | 92 | 1006.5 |
| 20260509141231 | 53 | 274 | 2.0 | 9.0 | 0.00 | 0.00 | 0.00 | 92 | 1006.6 |
| 20260509140149 | 53 | 298 | 2.0 | 7.0 | 0.00 | 0.00 | 0.00 | 92 | 1006.6 |
| 20260509135211 | 52 | 282 | 1.0 | 3.0 | 0.00 | 0.00 | 0.00 | 92 | 1006.6 |
| 20260509134127 | 52 | 287 | 2.0 | 3.0 | 0.00 | 0.00 | 0.00 | 93 | 1006.6 |
| 20260509133209 | 52 | 307 | 1.0 | 2.0 | 0.00 | 0.00 | 0.00 | 93 | 1006.7 |
| 20260509132107 | 52 | 295 | 1.0 | 3.0 | 0.00 | 0.00 | 0.00 | 94 | 1006.7 |
| 20260509131233 | 52 | 292 | 1.0 | 4.0 | 0.00 | 0.00 | 0.00 | 94 | 1006.8 |
| 20260509130151 | 51 | 288 | 1.0 | 3.0 | 0.00 | 0.00 | 0.00 | 94 | 1006.8 |
| 20260509125212 | 51 | 282 | 1.0 | 7.0 | 0.00 | 0.00 | 0.00 | 94 | 1006.9 |
| 20260509124150 | 51 | 242 | 2.0 | 3.0 | 0.00 | 0.00 | 0.00 | 94 | 1006.9 |
| 20260509123152 | 51 | 292 | 2.0 | 3.0 | 0.00 | 0.00 | 0.00 | 93 | 1007.0 |
| 20260509122130 | 51 | 272 | 2.0 | 3.0 | 0.00 | 0.00 | 0.00 | 93 | 1007.1 |
| 20260509121235 | 51 | 296 | 1.0 | 4.0 | 0.00 | 0.00 | 0.00 | 94 | 1007.1 |
| 20260509120152 | 51 | 292 | 1.0 | 3.0 | 0.00 | 0.00 | 0.00 | 93 | 1007.1 |
| 20260509115234 | 51 | 290 | 1.0 | 3.0 | 0.00 | 0.00 | 0.00 | 93 | 1007.0 |
| 20260509114132 | 51 | 312 | 1.0 | 3.0 | 0.00 | 0.00 | 0.00 | 93 | 1006.9 |
| 20260509113154 | 51 | 281 | 1.0 | 4.0 | 0.00 | 0.00 | 0.00 | 93 | 1006.9 |
| 20260509112112 | 51 | 288 | 1.0 | 3.0 | 0.00 | 0.00 | 0.00 | 93 | 1006.9 |
| 20260509111237 | 51 | 282 | 1.0 | 4.0 | 0.00 | 0.00 | 0.00 | 92 | 1006.8 |
| 20260509110156 | 51 | 292 | 1.0 | 4.0 | 0.00 | 0.00 | 0.00 | 92 | 1006.7 |
| 20260509105217 | 51 | 271 | 2.0 | 7.0 | 0.00 | 0.00 | 0.00 | 91 | 1006.7 |
| 20260509104132 | 51 | 283 | 1.0 | 3.0 | 0.00 | 0.00 | 0.00 | 90 | 1006.6 |
| 20260509103153 | 51 | 296 | 1.0 | 4.0 | 0.00 | 0.00 | 0.00 | 90 | 1006.6 |
| 20260509102112 | 51 | 288 | 1.0 | 3.0 | 0.00 | 0.00 | 0.00 | 90 | 1006.6 |
| 20260509101237 | 51 | 279 | 1.0 | 4.0 | 0.00 | 0.00 | 0.00 | 90 | 1006.6 |
| 20260509100155 | 51 | 280 | 1.0 | 3.0 | 0.00 | 0.00 | 0.00 | 90 | 1006.6 |
| 20260509095216 | 51 | 288 | 1.0 | 3.0 | 0.00 | 0.00 | 0.00 | 91 | 1006.7 |
| 20260509094155 | 51 | 287 | 1.0 | 2.0 | 0.00 | 0.00 | 0.00 | 91 | 1006.8 |
| 20260509093157 | 50 | 308 | 1.0 | 4.0 | 0.00 | 0.00 | 0.00 | 93 | 1006.8 |
| 20260509092115 | 50 | 283 | 1.0 | 2.0 | 0.00 | 0.00 | 0.00 | 96 | 1007.1 |
| 20260509091156 | 49 | 329 | 1.0 | 2.0 | 0.00 | 0.00 | 0.00 | 96 | 1007.0 |
| 20260509090158 | 49 | 0.0 | 0.0 | 0.00 | 0.00 | 0.00 | 96 | 1007.1 | |
| 20260509085220 | 49 | 0.0 | 0.0 | 0.00 | 0.00 | 0.00 | 96 | 1007.1 | |
| 20260509084137 | 49 | 0.0 | 0.0 | 0.00 | 0.00 | 0.00 | 96 | 1007.3 | |
| 20260509083159 | 49 | 24 | 0.0 | 1.0 | 0.00 | 0.00 | 0.00 | 96 | 1007.2 |
| 20260509082138 | 49 | 0.0 | 0.0 | 0.00 | 0.00 | 0.00 | 96 | 1007.4 | |
| 20260509081139 | 49 | 0.0 | 0.0 | 0.00 | 0.00 | 0.00 | 96 | 1007.3 | |
| 20260509080159 | 49 | 0.0 | 0.0 | 0.00 | 0.00 | 0.00 | 96 | 1007.2 | |
| 20260509075221 | 49 | 24 | 0.0 | 1.0 | 0.00 | 0.00 | 0.00 | 96 | 1007.3 |
| 20260509074139 | 49 | 0.0 | 0.0 | 0.00 | 0.00 | 0.00 | 96 | 1007.3 | |
| 20260509073221 | 49 | 0.0 | 0.0 | 0.00 | 0.00 | 0.00 | 96 | 1007.3 | |
| 20260509072138 | 49 | 0.0 | 0.0 | 0.00 | 0.00 | 0.00 | 96 | 1007.4 | |
| 20260509071140 | 49 | 0.0 | 0.0 | 0.00 | 0.00 | 0.00 | 96 | 1007.4 | |
| 20260509070201 | 49 | 0.0 | 0.0 | 0.00 | 0.00 | 0.00 | 96 | 1007.2 | |
| 20260509065223 | 49 | 0.0 | 0.0 | 0.00 | 0.00 | 0.00 | 96 | 1007.3 | |
| 20260509064141 | 49 | 0.0 | 0.0 | 0.00 | 0.00 | 0.00 | 96 | 1007.4 | |
| 20260509063202 | 49 | 0.0 | 0.0 | 0.00 | 0.00 | 0.00 | 96 | 1007.4 | |
| 20260509062121 | 49 | 0.0 | 0.0 | 0.00 | 0.00 | 0.00 | 95 | 1007.4 | |
| 20260509061143 | 49 | 0.0 | 0.0 | 0.00 | 0.00 | 0.00 | 95 | 1007.6 | |
| 20260509060202 | 49 | 0.0 | 0.0 | 0.00 | 0.00 | 0.00 | 95 | 1007.6 | |
| 20260509055224 | 49 | 0.0 | 0.0 | 0.00 | 0.00 | 0.00 | 95 | 1007.8 | |
| 20260509054142 | 49 | 0.0 | 0.0 | 0.00 | 0.00 | 0.00 | 95 | 1007.9 | |
| 20260509053203 | 49 | 0.0 | 0.0 | 0.00 | 0.00 | 0.00 | 95 | 1007.9 | |
| 20260509052141 | 49 | 0.0 | 0.0 | 0.00 | 0.00 | 0.00 | 95 | 1008.1 | |
| 20260509051203 | 49 | 0.0 | 0.0 | 0.00 | 0.00 | 0.00 | 95 | 1008.3 | |
| 20260509050204 | 49 | 0.0 | 0.0 | 0.00 | 0.00 | 0.00 | 95 | 1008.2 | |
| 20260509045226 | 49 | 0.0 | 0.0 | 0.00 | 0.00 | 0.00 | 94 | 1008.3 | |
| 20260509044144 | 50 | 0.0 | 0.0 | 0.00 | 0.00 | 0.00 | 94 | 1008.4 | |
| 20260509043205 | 50 | 0.0 | 0.0 | 0.00 | 0.00 | 0.00 | 94 | 1008.4 | |
| 20260509042123 | 50 | 0.0 | 0.0 | 0.00 | 0.00 | 0.00 | 94 | 1008.5 | |
| 20260509041144 | 50 | 0.0 | 0.0 | 0.00 | 0.00 | 0.00 | 94 | 1008.7 | |
| 20260509040206 | 50 | 0.0 | 0.0 | 0.00 | 0.00 | 0.00 | 94 | 1008.8 | |
| 20260509035227 | 50 | 24 | 0.0 | 0.0 | 0.00 | 0.00 | 0.00 | 93 | 1009.1 |
| 20260509034145 | 50 | 0.0 | 0.0 | 0.00 | 0.00 | 0.00 | 93 | 1009.1 |